Regional Weather Roundup
Issued by NWS

Home | Current Version | Previous Version | Text Only | Print | Product List | Glossary On
Versions: 1 2 3 4 5 6 7 8 9 10 11 12 13 14 15 16 17 18 19 20 21 22 23 24 25 26 27 28 29 30 31 32 33 34 35 36 37 38 39 40 41 42 43 44 45 46 47 48 49 50
000
ASUS43 KBIS 172202
RWRND

NORTH DAKOTA REGIONAL WEATHER ROUNDUP
NATIONAL WEATHER SERVICE BISMARCK ND
400 PM CST WED JAN 17 2018

NOTE: "FAIR" INDICATES FEW OR NO CLOUDS BELOW 12,000 FEET WITH NO
SIGNIFICANT WEATHER AND/OR OBSTRUCTIONS TO VISIBILITY.


NDZ001>003-009>011-017-172300-
NORTHWEST NORTH DAKOTA

CITY           SKY/WX    TMP DP  RH WIND       PRES   REMARKS
WILLISTON      SUNNY     34  22  61 W15       30.05F
MINOT          CLEAR     38  23  55 W21G30    29.95R
MINOT AFB      CLEAR     35  24  63 W20       29.93R
$$

NDZ018>021-031>035-040>046-172300-
SOUTHWEST NORTH DAKOTA

CITY           SKY/WX    TMP DP  RH WIND       PRES   REMARKS
BISMARCK       SUNNY     40  25  55 W13       30.08S
DICKINSON      SUNNY     35  23  61 W20       30.06F
GARRISON         N/A     36  24  62 W20       30.01S
HETTINGER ARPT SUNNY     35  23  61 W17       30.14S
$$

NDZ004>008-012>016-024-026-027-054-172300-
NORTHEAST NORTH DAKOTA

CITY           SKY/WX    TMP DP  RH WIND       PRES   REMARKS
GRAND FORKS    FAIR      32  25  75 SW10      29.90S
GRND FRKS AFB  FAIR      38  25  59 W15       29.90R
DEVILS LAKE    FAIR      33  24  69 W18       29.93R
$$

NDZ022-023-025-028>030-036>039-047>053-172300-
SOUTHEAST NORTH DAKOTA

CITY           SKY/WX    TMP DP  RH WIND       PRES   REMARKS
FARGO          FAIR      30  22  72 SW15      30.00S WCI  19
JAMESTOWN      CLEAR     35  24  64 W13       30.00R
$$




USA.gov is the U.S. government's official web portal to all federal, state and local government web resources and services.